GLO1174 SBGR-SBCT

Flight info

Callsign GLO1174
Flight time N/A
Altitude 26000
Route SOVSI UZ85 RAXIT
Aircraft B38M/M-SDFGHIJ4J5KLORWXY/LB1

Departure

Time 2026-05-07 16:44
Airport São Paulo/Guarulhos–Governor André Franco Montoro International Airport (SBGR)

Arrival

Time N/A
Airport Curitiba-Afonso Pena International Airport (SBCT)
Time Latitude Longitude Altitude Speed Heading
2026-05-07 16:30 -23.42867 -46.48348 2467 ft 0 kts 84°
2026-05-07 16:38 -23.42867 -46.48373 2467 ft 4 kts 100°
2026-05-07 16:38 -23.42859 -46.48400 2467 ft 4 kts 123°
2026-05-07 16:39 -23.42841 -46.48421 2467 ft 4 kts 151°
2026-05-07 16:39 -23.42821 -46.48427 2467 ft 0 kts 180°
2026-05-07 16:42 -23.42822 -46.48427 2467 ft 1 kts 180°
2026-05-07 16:42 -23.42856 -46.48427 2470 ft 10 kts 180°
2026-05-07 16:42 -23.42945 -46.48448 2467 ft 15 kts 189°
2026-05-07 16:42 -23.43055 -46.48442 2470 ft 17 kts 165°
2026-05-07 16:43 -23.43172 -46.48405 2471 ft 18 kts 163°
2026-05-07 16:43 -23.43295 -46.48367 2471 ft 19 kts 163°
2026-05-07 16:43 -23.43408 -46.48289 2464 ft 19 kts 98°
2026-05-07 16:43 -23.43370 -46.48113 2468 ft 43 kts 73°
2026-05-07 16:44 -23.43219 -46.47565 2463 ft 106 kts 73°
2026-05-07 16:44 -23.42963 -46.46612 2472 ft 154 kts 73°
2026-05-07 16:44 -23.42632 -46.45369 2600 ft 182 kts 72°
2026-05-07 16:44 -23.42310 -46.44054 3368 ft 174 kts 69°
2026-05-07 16:45 -23.41937 -46.42841 4184 ft 169 kts 68°
2026-05-07 16:45 -23.41541 -46.41552 4587 ft 191 kts 75°
2026-05-07 16:45 -23.41110 -46.40096 4951 ft 213 kts 73°
2026-05-07 16:45 -23.40640 -46.38501 5290 ft 239 kts 72°
2026-05-07 16:46 -23.40211 -46.36662 5627 ft 265 kts 86°
2026-05-07 16:46 -23.40542 -46.34705 6452 ft 269 kts 107°
2026-05-07 16:46 -23.41160 -46.32712 7033 ft 284 kts 107°
2026-05-07 16:46 -23.41809 -46.30657 7785 ft 289 kts 107°
2026-05-07 16:47 -23.42480 -46.28588 8557 ft 292 kts 110°
2026-05-07 16:47 -23.43598 -46.26729 9331 ft 298 kts 135°
2026-05-07 16:47 -23.45365 -46.25534 10082 ft 305 kts 160°
2026-05-07 16:47 -23.47496 -46.25208 10604 ft 319 kts 184°
2026-05-07 16:48 -23.49735 -46.25642 11013 ft 334 kts 191°
2026-05-07 16:48 -23.52054 -46.26160 11484 ft 347 kts 197°
2026-05-07 16:48 -23.54208 -46.27357 12166 ft 351 kts 219°
2026-05-07 16:48 -23.55820 -46.29346 12909 ft 353 kts 241°
2026-05-07 16:49 -23.56703 -46.31837 13681 ft 354 kts 258°
2026-05-07 16:49 -23.57246 -46.34439 14434 ft 358 kts 258°
2026-05-07 16:49 -23.57782 -46.37025 15179 ft 362 kts 258°
2026-05-07 16:49 -23.58329 -46.39726 15936 ft 366 kts 258°
2026-05-07 16:50 -23.58875 -46.42456 16662 ft 370 kts 258°
2026-05-07 16:50 -23.59424 -46.45220 17364 ft 374 kts 258°
2026-05-07 16:50 -23.59977 -46.48009 18021 ft 378 kts 258°
2026-05-07 16:50 -23.60533 -46.50819 18668 ft 381 kts 258°
2026-05-07 16:51 -23.60984 -46.53685 19306 ft 384 kts 261°
2026-05-07 16:51 -23.61412 -46.56564 19970 ft 385 kts 260°
2026-05-07 16:51 -23.61848 -46.59458 20591 ft 388 kts 260°
2026-05-07 16:51 -23.62290 -46.62367 21165 ft 391 kts 260°
2026-05-07 16:52 -23.62927 -46.65244 21762 ft 392 kts 246°
2026-05-07 16:52 -23.64238 -46.67843 22411 ft 391 kts 238°
2026-05-07 16:52 -23.65663 -46.70385 22990 ft 394 kts 238°
2026-05-07 16:52 -23.67091 -46.72898 23577 ft 395 kts 238°
2026-05-07 16:53 -23.68552 -46.75442 24153 ft 397 kts 238°
2026-05-07 16:53 -23.70027 -46.77995 24706 ft 399 kts 238°
2026-05-07 16:53 -23.71530 -46.80556 25266 ft 401 kts 237°
2026-05-07 16:53 -23.73042 -46.83120 25823 ft 403 kts 237°
2026-05-07 16:54 -23.74563 -46.85703 26039 ft 401 kts 237°
2026-05-07 16:54 -23.76039 -46.88212 26090 ft 383 kts 237°
2026-05-07 16:54 -23.77465 -46.90636 26088 ft 377 kts 237°
2026-05-07 16:54 -23.78878 -46.93039 26072 ft 376 kts 237°
2026-05-07 16:55 -23.80290 -46.95443 26065 ft 376 kts 237°
2026-05-07 16:55 -23.81704 -46.97850 26059 ft 376 kts 237°
2026-05-07 16:55 -23.83118 -47.00259 26056 ft 375 kts 237°
2026-05-07 16:55 -23.84525 -47.02657 26061 ft 375 kts 237°
2026-05-07 16:56 -23.85914 -47.05026 26043 ft 375 kts 238°
2026-05-07 16:56 -23.87323 -47.07430 26049 ft 375 kts 238°
2026-05-07 16:56 -23.90139 -47.12235 26045 ft 376 kts 238°
2026-05-07 16:57 -23.91549 -47.14645 26049 ft 376 kts 238°
2026-05-07 16:57 -23.92962 -47.17060 26037 ft 376 kts 238°
2026-05-07 16:57 -23.94373 -47.19472 26046 ft 376 kts 238°
2026-05-07 16:57 -23.95780 -47.21881 26072 ft 376 kts 238°
2026-05-07 16:58 -23.97191 -47.24295 26084 ft 376 kts 238°
2026-05-07 16:58 -23.98599 -47.26706 26090 ft 376 kts 238°
2026-05-07 16:58 -24.00007 -47.29119 26091 ft 375 kts 238°
2026-05-07 16:58 -24.01391 -47.31493 26091 ft 375 kts 238°
2026-05-07 16:59 -24.02795 -47.33901 26091 ft 376 kts 238°
2026-05-07 16:59 -24.04215 -47.36337 26093 ft 376 kts 238°
2026-05-07 16:59 -24.05622 -47.38752 26091 ft 375 kts 239°
2026-05-07 16:59 -24.07004 -47.41125 26091 ft 375 kts 239°
2026-05-07 17:00 -24.08409 -47.43539 26085 ft 375 kts 239°
2026-05-07 17:00 -24.09829 -47.45926 26085 ft 376 kts 234°
2026-05-07 17:00 -24.11711 -47.47909 26076 ft 379 kts 216°
2026-05-07 17:00 -24.13926 -47.49485 26084 ft 380 kts 216°
2026-05-07 17:01 -24.16145 -47.51068 26079 ft 380 kts 215°
2026-05-07 17:01 -24.18378 -47.52640 26085 ft 381 kts 215°
2026-05-07 17:01 -24.20610 -47.54201 26082 ft 381 kts 215°
2026-05-07 17:01 -24.22844 -47.55757 26083 ft 381 kts 215°
2026-05-07 17:02 -24.25087 -47.57319 26083 ft 381 kts 215°
2026-05-07 17:02 -24.27319 -47.58872 26083 ft 381 kts 215°
2026-05-07 17:02 -24.29557 -47.60430 26083 ft 381 kts 215°
2026-05-07 17:02 -24.31796 -47.61990 26081 ft 381 kts 215°
2026-05-07 17:03 -24.34038 -47.63552 26084 ft 381 kts 215°
2026-05-07 17:03 -24.36246 -47.65091 26079 ft 381 kts 215°
2026-05-07 17:03 -24.38486 -47.66653 26075 ft 381 kts 215°
2026-05-07 17:03 -24.40722 -47.68213 26074 ft 381 kts 215°
2026-05-07 17:04 -24.42855 -47.69919 26066 ft 377 kts 225°
2026-05-07 17:04 -24.44763 -47.71901 26072 ft 378 kts 225°
2026-05-07 17:04 -24.46690 -47.73862 26072 ft 378 kts 225°
2026-05-07 17:04 -24.48621 -47.75829 26073 ft 378 kts 225°
2026-05-07 17:05 -24.50550 -47.77794 26073 ft 378 kts 225°
2026-05-07 17:05 -24.52478 -47.79760 26075 ft 378 kts 225°
2026-05-07 17:05 -24.54407 -47.81727 26071 ft 378 kts 225°
2026-05-07 17:05 -24.56334 -47.83694 26072 ft 378 kts 225°
2026-05-07 17:06 -24.58259 -47.85658 26073 ft 378 kts 225°
2026-05-07 17:06 -24.60188 -47.87629 26066 ft 378 kts 225°
2026-05-07 17:06 -24.62112 -47.89594 26065 ft 378 kts 225°
2026-05-07 17:06 -24.64040 -47.91566 26066 ft 378 kts 225°
2026-05-07 17:07 -24.65965 -47.93534 26057 ft 378 kts 225°
2026-05-07 17:07 -24.67889 -47.95502 26050 ft 378 kts 225°
2026-05-07 17:07 -24.69815 -47.97473 26049 ft 377 kts 225°
2026-05-07 17:07 -24.71735 -47.99440 26034 ft 378 kts 225°
2026-05-07 17:08 -24.73659 -48.01411 26037 ft 378 kts 225°
2026-05-07 17:08 -24.75561 -48.03360 26032 ft 378 kts 225°
2026-05-07 17:08 -24.77488 -48.05335 26039 ft 379 kts 225°
2026-05-07 17:08 -24.79417 -48.07314 26031 ft 379 kts 225°
2026-05-07 17:09 -24.81373 -48.09321 25396 ft 389 kts 225°
2026-05-07 17:09 -24.83371 -48.11373 25019 ft 394 kts 225°
2026-05-07 17:09 -24.85381 -48.13438 24582 ft 397 kts 225°
2026-05-07 17:09 -24.87403 -48.15515 24081 ft 397 kts 225°
2026-05-07 17:10 -24.89420 -48.17589 23568 ft 396 kts 225°
2026-05-07 17:10 -24.91426 -48.19654 23064 ft 393 kts 225°
2026-05-07 17:10 -24.93425 -48.21709 22553 ft 392 kts 225°
2026-05-07 17:10 -24.95410 -48.23753 22060 ft 390 kts 225°
2026-05-07 17:11 -24.97390 -48.25792 21566 ft 388 kts 225°
2026-05-07 17:11 -24.99364 -48.27828 21008 ft 388 kts 225°
2026-05-07 17:11 -25.01332 -48.29858 20546 ft 386 kts 225°
2026-05-07 17:11 -25.03287 -48.31877 20097 ft 383 kts 225°
2026-05-07 17:12 -25.05225 -48.33878 19649 ft 381 kts 225°
2026-05-07 17:12 -25.07155 -48.35871 19203 ft 379 kts 224°
2026-05-07 17:12 -25.09075 -48.37856 18761 ft 376 kts 224°
2026-05-07 17:12 -25.10956 -48.39801 18328 ft 374 kts 224°
2026-05-07 17:13 -25.12817 -48.41800 17856 ft 373 kts 228°
2026-05-07 17:13 -25.14572 -48.43903 17427 ft 371 kts 228°
2026-05-07 17:13 -25.16320 -48.45979 16996 ft 369 kts 228°
2026-05-07 17:13 -25.18068 -48.48043 16562 ft 366 kts 228°
2026-05-07 17:14 -25.19803 -48.50090 16129 ft 364 kts 228°
2026-05-07 17:14 -25.21533 -48.52128 15695 ft 362 kts 228°
2026-05-07 17:14 -25.23251 -48.54153 15264 ft 361 kts 228°
2026-05-07 17:14 -25.24958 -48.56176 14838 ft 359 kts 229°
2026-05-07 17:15 -25.26651 -48.58192 14463 ft 357 kts 229°
2026-05-07 17:15 -25.28348 -48.60213 14116 ft 358 kts 229°
2026-05-07 17:15 -25.30045 -48.62235 13752 ft 358 kts 228°
2026-05-07 17:15 -25.31164 -48.63568 13515 ft 357 kts 229°
2026-05-07 17:16 -25.32846 -48.65572 13156 ft 356 kts 229°
2026-05-07 17:16 -25.34528 -48.67578 12765 ft 354 kts 229°
2026-05-07 17:16 -25.36197 -48.69569 12411 ft 351 kts 229°
2026-05-07 17:16 -25.38378 -48.72174 11938 ft 346 kts 229°
2026-05-07 17:17 -25.39483 -48.73492 11690 ft 344 kts 229°
2026-05-07 17:17 -25.41051 -48.75366 11340 ft 340 kts 229°
2026-05-07 17:17 -25.42650 -48.77277 11006 ft 337 kts 229°
2026-05-07 17:17 -25.44215 -48.79148 10669 ft 333 kts 229°
2026-05-07 17:18 -25.45779 -48.81018 10311 ft 330 kts 229°
2026-05-07 17:18 -25.47335 -48.82880 9960 ft 328 kts 229°
2026-05-07 17:18 -25.48877 -48.84725 9639 ft 325 kts 229°
2026-05-07 17:18 -25.50406 -48.86559 9293 ft 323 kts 229°
2026-05-07 17:19 -25.51925 -48.88378 8965 ft 320 kts 230°
2026-05-07 17:19 -25.53433 -48.90186 8599 ft 319 kts 230°
2026-05-07 17:19 -25.54933 -48.91985 8262 ft 317 kts 230°
2026-05-07 17:19 -25.56418 -48.93766 7938 ft 313 kts 230°
2026-05-07 17:20 -25.57887 -48.95528 7611 ft 310 kts 229°
2026-05-07 17:20 -25.59427 -48.97206 7244 ft 310 kts 226°
2026-05-07 17:20 -25.60968 -48.98863 6887 ft 308 kts 226°
2026-05-07 17:20 -25.62496 -49.00520 6546 ft 306 kts 228°
2026-05-07 17:21 -25.63635 -49.02464 6124 ft 300 kts 256°
2026-05-07 17:21 -25.63689 -49.04711 5731 ft 291 kts 289°
2026-05-07 17:21 -25.62698 -49.06596 5402 ft 283 kts 315°
2026-05-07 17:21 -25.61759 -49.07596 5194 ft 280 kts 318°